Fairhope, AL (36532)

1:27 AM CST on February 10, 2016 (GMT -0600)
Fairhope - River Mill | | Change Station
CLOSE
Current Station
Personal Weather Station
Location: Fairhope, AL
Elevation: 121 ft
Nearby Weather Stations

Elev 121 ft 30.52 °N, 87.85 °W | Updated 21 seconds ago

Clear
Clear
44.1 °F
Feels Like 44 °F
N
2.9
Wind Variable Wind from North
Gusts 4.9 mph

Today
High -- | Low -- °F
--% Chance of Precip.
Yesterday
High -- | Low -- °F
Precip. -- in
Pressure 30.18 in
Visibility 10.0 miles
Clouds Clear
Windchill 44 °F
Dew Point 24 °F
Humidity 45%
Rainfall 0.00 in
Snow Depth Not available.
6:36 AM 5:35 PM
Waxing Crescent, 4% visible
METAR KCQF 100715Z AUTO 33006KT 10SM CLR 05/M03 A3018 RMK AO2
Pressure 30.18 in
Visibility 10.0 miles
Clouds Clear
Windchill 44 °F
Dew Point 24 °F
Humidity 45%
Rainfall 0.00 in
Snow Depth Not available.
6:36 AM 5:35 PM
Waxing Crescent, 4% visible
METAR KCQF 100715Z AUTO 33006KT 10SM CLR 05/M03 A3018 RMK AO2

10-Day Weather Forecast

Almanac

Astronomy

Feb. 10, 2016 Rise Set
Actual Time
Civil Twilight
Nautical Twilight
Astronomical Twilight
Moon
Length of Visible Light
Length of Day
Tomorrow will be .
, % of the Moon is Illuminated

Today's Extremes

State Highs State Lows

Community

WunderPhotos

Upload Photos

1,891,826 photos uploaded!

WunderBlog® & News

Nearby

Air Quality

  Air Quality AQ Index Pollutant
Not available.

Snow Depth

Station Depth Elevation

Earthquake Activity

City Distance Mag. Time & Date
Minimum magnitude displayed is 2.5.

Coastal Water Temperatures

Place Temperature

Stations

Nearby Weather Stations

Station Location Temp. Windchill Dew Point Humidity Wind Precip. Elev Updated Type
                   

Watches & Warnings

There are currently no watches in effect.